Retour au catalogue

STARLINK-36604

ActifCommunicationsSSO
NORAD 68142·PAYLOAD·🇺🇸 United States

Lancé Mar 13, 2026 depuis Vandenberg Space Force Base

Loading…

Prochains Passages (prochaines 24 heures)

TLE

FraisSource: CelesTrak SupGP

Époque: Sep 15, 2026, 04:06 UTC

1 68142C 26049A   26258.17131944 -.00067028  00000+0 -20811-2 0  2581
2 68142  97.2838 278.1586 0001625  95.9368 187.4030 15.33467024    10

Suivez STARLINK-36604 en temps réel avec AllMySat

Download on the App Store